Regional Weather Roundup
Issued by NWS

Home | Current Version | Previous Version | Graphics & Text | Print | Product List | Glossary Off
Versions: 1 2 3 4 5 6 7 8 9 10 11 12 13 14 15 16 17 18 19 20 21 22 23 24 25 26 27 28 29 30 31 32 33 34 35 36 37 38 39 40 41 42 43 44 45 46 47 48 49 50

000
ASUS43 KMPX 221510
RWRMN
WEATHER ROUNDUP FOR MINNESOTA
NATIONAL WEATHER SERVICE TWIN CITIES/CHANHASSEN MN
1000 AM CDT THU JUN 22 2017


NOTE: "FAIR" INDICATES FEW OR NO CLOUDS BELOW 12,000 FEET WITH NO
SIGNIFICANT WEATHER AND/OR OBSTRUCTIONS TO VISIBILITY. N/A MEANS
CURRENT SKY AND/OR WEATHER CONDITIONS ARE NOT AVAILABLE.

MNZ060>063-068>070-221600-
   Twin Cities Metro

CITY           SKY/WX    TMP DP  RH WIND       PRES   REMARKS
TWIN CITIES    HVY RAIN  70  63  78 SE12      29.70R
ST PAUL        LGT RAIN  69  66  90 SE3       29.71R FOG
CRYSTAL        LGT RAIN  69  61  75 E5        29.69S
BLAINE         PTSUNNY   70  66  88 CALM      29.70R
LAKEVILLE      TSTM      68  68 100 SE8       29.70F
EDEN PRAIRIE   LGT RAIN  69  64  84 E7        29.69F
SOUTH ST PAUL  RAIN      70  64  82 CALM      29.72F
LAKE ELMO      LGT RAIN  68  64  88 S3        29.73S
$$
MNZ001>005-007-008-013>017-022>024-027-028-221600-
   Northwest Minnesota

CITY           SKY/WX    TMP DP  RH WIND       PRES   REMARKS
BEMIDJI        CLOUDY    65  48  54 W6        29.72S
HALLOCK        PTSUNNY   63  52  67 SW6       29.68F
ROSEAU         CLOUDY    61  48  63 W5        29.69R
WARROAD        CLOUDY    59  50  72 SW6       29.69R
THIEF RVR FALL CLOUDY    59  49  69 SW8       29.73S
CROOKSTON      LGT RAIN  59  54  82 W5        29.74S
FOSSTON        CLOUDY    63  50  63 SW6       29.73F
DETROIT LAKES  CLOUDY    66  52  59 NW6       29.75S
MOORHEAD       CLOUDY    68  48  49 NW8       29.74F
PARK RAPIDS    CLOUDY    67  50  54 W6        29.73S
MAHNOMEN       FAIR      66  52  61 W7        29.73F
$$
MNZ006-009>011-018-025>026-221600-
   North Central Minnesota

CITY           SKY/WX    TMP DP  RH WIND       PRES   REMARKS
BAUDETTE       CLOUDY    60  50  69 SW6       29.68R
FLAG ISLAND    PTSUNNY   63  46  55 W9        29.63S
INTL FALLS     CLOUDY    65  51  60 W6        29.67S
WASKISH        CLOUDY    64  52  63 W10       29.70F
BIG FORK       CLOUDY    66  54  63 CALM      29.69F
LONGVILLE      CLOUDY    66  52  59 CALM      29.71F
GRAND RAPIDS   CLOUDY    66  54  65 W6        29.72S
CRANE LAKE     CLOUDY    66  52  59 NW5       29.67F
ORR            CLOUDY    66  54  63 NW3       29.66S
COOK           CLOUDY    66  54  63 SW7       29.69S
WALKER         FAIR      65  50  58 W5        29.72S
$$
MNZ012-019>021-037-221600-
   Northeast Minnesota

CITY           SKY/WX    TMP DP  RH WIND       PRES   REMARKS
DULUTH         CLOUDY    68  54  60 NW6       29.68F
ELY            CLOUDY    66  48  52 W6        29.67F
HIBBING        CLOUDY    66  55  67 NW9       29.68F
EVELETH        CLOUDY    65  51  58 NW5       29.69F
DULUTH HARBOR  CLOUDY    66  59  77 SW7       29.68F
TWO HARBORS    CLOUDY    64  59  82 SW5       29.66F
SILVER BAY     CLOUDY    70  57  64 CALM      29.65S
GRAND MARAIS     N/A     48  46  93 SW10      29.64F
G MARAIS ARPRT CLOUDY    64  54  68 W8        29.67S
$$
MNZ029>031-032-039>041-046>048-054>057-064-221600-
   West Central Minnesota

CITY           SKY/WX    TMP DP  RH WIND       PRES   REMARKS
FERGUS FALLS   CLOUDY    63  59  88 N5        29.70F
WHEATON        CLOUDY    63  57  82 CALM      29.75R
MORRIS         LGT RAIN  64  63  94 W3        29.74R
ALEXANDRIA     CLOUDY    64  57  78 N3        29.74R
ELBOW LAKE     FAIR      64  60  86 N5        29.73F
WADENA           N/A     63  55  77 NW6       29.72F
GLENWOOD       LGT RAIN  63  59  88 N6        29.73R
APPLETON       RAIN      61  57  88 CALM      29.77R
BENSON         RAIN      61  57  88 SW5       29.78R
ORTONVILLE     RAIN      61  57  88 CALM      29.72F
MADISON        RAIN      63  63 100 NE5       29.76R
WILLMAR        HVY RAIN  61  61 100 CALM      29.79R
$$
MNZ033>034-036-042>043-049>051-058-059-221600-
   Central Minnesota

CITY           SKY/WX    TMP DP  RH WIND       PRES   REMARKS
ST CLOUD       LGT RAIN  59  57  93 SE3       29.71F
SAUK CENTRE    LGT RAIN  63  60  91 S3        29.72R
PAYNESVILLE    LGT RAIN  59  59 100 SE3       29.75R
AITKIN         CLOUDY    64  57  77 NW5       29.68F
PINE RIVER     CLOUDY    64  57  77 W3        29.74F
BRAINERD       CLOUDY    66  56  70 N7        29.69F
STAPLES        CLOUDY    64  55  72 NW5       29.71F
LONG PRAIRIE   FAIR      63  55  77 CALM      29.72R
LITTLE FALLS   CLOUDY    64  55  72 CALM      29.72R
LITCHFIELD     DRIZZLE   63  59  88 E6        29.71F
BUFFALO        LGT RAIN  66  59  77 NE8       29.71F
MAPLE LAKE     LGT RAIN  64  59  85 E7        29.70F
HUTCHINSON     TSTM      67  63  87 SE3       29.74R
$$
MNZ037-044-045-052-053-221600-
   East Central Minnesota

CITY           SKY/WX    TMP DP  RH WIND       PRES   REMARKS
PRINCETON      LGT RAIN  63  59  88 CALM      29.72R
MORA           CLOUDY    64  61  88 CALM      29.71F
CAMBRIDGE      RAIN      66  57  72 CALM      29.69F
RUSH CITY      LGT RAIN  64  61  88 CALM      29.70F
MOOSE LAKE     CLOUDY    68  54  60 N3        29.68F
HINCKLEY       FAIR      68  61  77 NE5       29.69F
CLOQUET        CLOUDY    66  55  68 SW6       29.69F
MCGREGOR       CLOUDY    64  57  77 W3        29.71F
$$
MNZ071>073-080-081-089-090-097-098-221600-
   Southwest Minnesota

CITY           SKY/WX    TMP DP  RH WIND       PRES   REMARKS
MONTEVIDEO     RAIN      61  57  88 W3        29.78R
GRANITE FALLS    N/A     65  61  87 SE5       29.79R
CANBY          RAIN      62  60  94 CALM      29.76F
MARSHALL       HVY RAIN  66  63  88 NE12      29.76F
REDWOOD FALLS  TSTM      66  63  90 E3        29.77R FOG
OLIVIA         RAIN      63  59  88 SW3       29.80R
PIPESTONE      CLOUDY    66  64  94 E8        29.74R
WINDOM         CLOUDY    68  64  88 N8        29.76S
WORTHINGTON    CLOUDY    67  65  93 NE10      29.73F
JACKSON        CLOUDY    64  64 100 N10       29.73R
TRACY          TSTM      69  68  98 E9        29.76R
SLAYTON        CLOUDY    66  61  82 NE7       29.75S
$$
MNZ065>067-074>077-082>085-091>093-221600-
   South Central Minnesota

CITY           SKY/WX    TMP DP  RH WIND       PRES   REMARKS
MANKATO        LGT RAIN  70  68  94 NE10      29.68F
NEW ULM        CLOUDY    66  64  94 E5        29.73F
ST JAMES       CLOUDY    70  66  88 NW7       29.72R
FAIRMONT       TSTM      68  64  87 E9        29.71S
GLENCOE        CLOUDY    69  66  92 E6        29.71R
FARIBAULT      RAIN      70  66  88 NE6       29.73S
OWATONNA       TSTM      70  68  94 NE6       29.71S
WASECA         TSTM      70  68  94 W6        29.77R
ALBERT LEA     TSTM      68  64  88 W10G17    29.78R
$$
MNZ078>079-086>088-094>096-221600-
   Southeast Minnesota

CITY           SKY/WX    TMP DP  RH WIND       PRES   REMARKS
ROCHESTER      CLOUDY    72  65  78 S9        29.69F
RED WING       CLOUDY    72  66  83 CALM      29.70F
STANTON        LGT RAIN  71  67  89 NW3       29.73R
DODGE CENTER   CLOUDY    72  64  78 N6        29.70F
WINONA         CLOUDY    73  64  73 CALM      29.73R
AUSTIN         CLOUDY    70  64  83 S8        29.69F
PRESTON        CLOUDY    69  63  79 S9        29.71F
$$
ABBREVIATIONS USED IN REMARKS
   TC - TEMPERATURES IN CELSIUS
  WCI - WIND CHILL INDEX
   HX - HEAT INDEX
  VSB - VISIBILITY
$$




USA.gov is the U.S. government's official web portal to all federal, state and local government web resources and services.